29.03.2024;01:15;12,80
29.03.2024;01:00;12,80
29.03.2024;00:45;12,80
29.03.2024;00:30;12,80
29.03.2024;00:15;12,90
29.03.2024;00:00;12,90
28.03.2024;23:45;12,90
28.03.2024;23:30;12,90
28.03.2024;23:15;12,90
28.03.2024;23:00;12,90
28.03.2024;22:45;12,90
28.03.2024;22:30;12,90
28.03.2024;22:15;12,90
28.03.2024;22:00;12,90
28.03.2024;21:45;12,90
28.03.2024;21:30;12,90
28.03.2024;21:15;12,90
28.03.2024;21:00;12,90
28.03.2024;20:45;12,90
28.03.2024;20:30;12,90
28.03.2024;20:15;12,90
28.03.2024;20:00;12,90
28.03.2024;19:45;12,90
28.03.2024;19:30;12,90
28.03.2024;19:15;13,00
28.03.2024;19:00;13,00
28.03.2024;18:45;13,00
28.03.2024;18:30;13,00
28.03.2024;18:15;13,00
28.03.2024;18:00;13,00
28.03.2024;17:45;13,10
28.03.2024;17:30;13,10
28.03.2024;17:15;13,30
28.03.2024;17:00;12,70
28.03.2024;16:45;12,70
28.03.2024;16:30;12,70
28.03.2024;16:15;12,70
28.03.2024;16:00;12,70
28.03.2024;15:45;12,70
28.03.2024;15:30;12,70
28.03.2024;15:15;12,70
28.03.2024;15:00;12,70
28.03.2024;14:45;12,70
28.03.2024;14:30;12,60
28.03.2024;14:15;12,60
28.03.2024;14:00;12,70
28.03.2024;13:45;12,70
28.03.2024;13:30;12,70
28.03.2024;13:15;12,70
28.03.2024;13:00;12,70
28.03.2024;12:45;12,70
28.03.2024;12:30;12,70
28.03.2024;12:15;12,70
28.03.2024;12:00;12,70
28.03.2024;11:45;12,70
28.03.2024;11:30;12,70
28.03.2024;11:15;12,70
28.03.2024;11:00;12,70
28.03.2024;10:45;12,70
28.03.2024;10:30;12,70
28.03.2024;10:15;12,70
28.03.2024;10:00;12,70
28.03.2024;09:45;12,70
28.03.2024;09:30;12,70
28.03.2024;09:15;12,70
28.03.2024;09:00;12,70
28.03.2024;08:45;12,70
28.03.2024;08:30;12,70
28.03.2024;08:15;12,70
28.03.2024;08:00;12,70
28.03.2024;07:45;12,70
28.03.2024;07:30;12,70
28.03.2024;07:15;12,70
28.03.2024;07:00;12,70
28.03.2024;06:45;12,70
28.03.2024;06:30;12,70
28.03.2024;06:15;12,70
28.03.2024;06:00;12,70
28.03.2024;05:45;12,70
28.03.2024;05:30;12,70
28.03.2024;05:15;12,80
28.03.2024;05:00;12,80
28.03.2024;04:45;12,80
28.03.2024;04:30;12,80
28.03.2024;04:15;12,80
28.03.2024;04:00;12,80
28.03.2024;03:45;12,80
28.03.2024;03:30;12,80
28.03.2024;03:15;12,80
28.03.2024;03:00;12,80
28.03.2024;02:45;12,80
28.03.2024;02:30;12,80
28.03.2024;02:15;12,80
28.03.2024;02:00;12,80
28.03.2024;01:45;12,80
28.03.2024;01:30;12,80
28.03.2024;01:15;12,80
28.03.2024;01:00;12,80
28.03.2024;00:45;12,90
28.03.2024;00:30;12,90
28.03.2024;00:15;12,90
28.03.2024;00:00;12,90
27.03.2024;23:45;12,90
27.03.2024;23:30;12,90
27.03.2024;23:15;12,90
27.03.2024;23:00;12,90
27.03.2024;22:45;12,90
27.03.2024;22:30;12,90
27.03.2024;22:15;12,90
27.03.2024;22:00;12,90
27.03.2024;21:45;12,90
27.03.2024;21:30;12,90
27.03.2024;21:15;12,90
27.03.2024;21:00;12,90
27.03.2024;20:45;12,90
27.03.2024;20:30;12,90
27.03.2024;20:15;12,90
27.03.2024;20:00;13,00
27.03.2024;19:45;13,00
27.03.2024;19:30;13,00
27.03.2024;19:15;13,00
27.03.2024;19:00;13,00
27.03.2024;18:45;13,00
27.03.2024;18:30;13,00
27.03.2024;18:15;13,10
27.03.2024;18:00;13,20
27.03.2024;17:45;14,20
27.03.2024;17:30;12,70
27.03.2024;17:15;12,70
27.03.2024;17:00;12,70
27.03.2024;16:45;12,70
27.03.2024;16:30;12,70
27.03.2024;16:15;12,70
27.03.2024;16:00;12,70
27.03.2024;15:45;12,70
27.03.2024;15:30;12,70
27.03.2024;15:15;12,70
27.03.2024;15:00;12,70
27.03.2024;14:45;12,70
27.03.2024;14:30;12,60
27.03.2024;14:15;12,60
27.03.2024;14:00;12,70
27.03.2024;13:45;12,70
27.03.2024;13:30;12,70
27.03.2024;13:15;12,70
27.03.2024;13:00;12,70
27.03.2024;12:45;12,70
27.03.2024;12:30;12,70
27.03.2024;12:15;12,70
27.03.2024;12:00;12,70
27.03.2024;11:45;12,70
27.03.2024;11:30;12,70
27.03.2024;11:15;12,70
27.03.2024;11:00;12,70
27.03.2024;10:45;12,70
27.03.2024;10:30;12,70
27.03.2024;10:15;12,70
27.03.2024;10:00;12,70
27.03.2024;09:45;12,70
27.03.2024;09:30;12,70
27.03.2024;09:15;12,70
27.03.2024;09:00;12,70
27.03.2024;08:45;12,70
27.03.2024;08:30;12,70
27.03.2024;08:15;12,70
27.03.2024;08:00;12,70
27.03.2024;07:45;12,70
27.03.2024;07:30;12,70
27.03.2024;07:15;12,70
27.03.2024;07:00;12,70
27.03.2024;06:45;12,70
27.03.2024;06:30;12,70
27.03.2024;06:15;12,80
27.03.2024;06:00;12,80
27.03.2024;05:45;12,80
27.03.2024;05:30;12,80
27.03.2024;05:15;12,80
27.03.2024;05:00;12,80
27.03.2024;04:45;12,80
27.03.2024;04:30;12,80
27.03.2024;04:15;12,80
27.03.2024;04:00;12,80
27.03.2024;03:45;12,80
27.03.2024;03:30;12,80
27.03.2024;03:15;12,80
27.03.2024;03:00;12,80
27.03.2024;02:45;12,80
27.03.2024;02:30;12,80
27.03.2024;02:15;12,80
27.03.2024;02:00;12,80
27.03.2024;01:45;12,80
27.03.2024;01:30;12,80
27.03.2024;01:15;12,90
27.03.2024;01:00;12,90
27.03.2024;00:45;12,90
27.03.2024;00:30;12,90
27.03.2024;00:15;12,90
27.03.2024;00:00;12,90
26.03.2024;23:45;12,90
26.03.2024;23:30;12,90
26.03.2024;23:15;12,90
26.03.2024;23:00;12,90
26.03.2024;22:45;12,90
26.03.2024;22:30;12,90
26.03.2024;22:15;12,90
26.03.2024;22:00;12,90
26.03.2024;21:45;12,90
26.03.2024;21:30;12,90
26.03.2024;21:15;12,90
26.03.2024;21:00;12,90
26.03.2024;20:45;12,90
26.03.2024;20:30;13,00
26.03.2024;20:15;13,00
26.03.2024;20:00;13,00
26.03.2024;19:45;13,00
26.03.2024;19:30;13,00
26.03.2024;19:15;13,00
26.03.2024;19:00;13,10
26.03.2024;18:45;13,10
26.03.2024;18:30;13,80
26.03.2024;18:15;12,70
26.03.2024;18:00;12,70
26.03.2024;17:45;12,70
26.03.2024;17:30;12,70
26.03.2024;17:15;12,70
26.03.2024;17:00;12,70
26.03.2024;16:45;12,70
26.03.2024;16:30;12,70
26.03.2024;16:15;12,70
26.03.2024;16:00;12,70
26.03.2024;15:45;12,70
26.03.2024;15:30;12,70
26.03.2024;15:15;12,70
26.03.2024;15:00;12,70
26.03.2024;14:45;12,70
26.03.2024;14:30;12,60
26.03.2024;14:15;12,60
26.03.2024;14:00;12,70
26.03.2024;13:45;12,70
26.03.2024;13:30;12,70
26.03.2024;13:15;12,70
26.03.2024;13:00;12,70
26.03.2024;12:45;12,70
26.03.2024;12:30;12,70
26.03.2024;12:15;12,70
26.03.2024;12:00;12,70
26.03.2024;11:45;12,70
26.03.2024;11:30;12,70
26.03.2024;11:15;12,70
26.03.2024;11:00;12,70
26.03.2024;10:45;12,70
26.03.2024;10:30;12,70
26.03.2024;10:15;12,70
26.03.2024;10:00;12,70
26.03.2024;09:45;12,70
26.03.2024;09:30;12,70
26.03.2024;09:15;12,70
26.03.2024;09:00;12,70
26.03.2024;08:45;12,70
26.03.2024;08:30;12,70
26.03.2024;08:15;12,70
26.03.2024;08:00;12,70
26.03.2024;07:45;12,70
26.03.2024;07:30;12,70
26.03.2024;07:15;12,70
26.03.2024;07:00;12,70
26.03.2024;06:45;12,70
26.03.2024;06:30;12,70
26.03.2024;06:15;12,80
26.03.2024;06:00;12,80
26.03.2024;05:45;12,80
26.03.2024;05:30;12,80
26.03.2024;05:15;12,80
26.03.2024;05:00;12,80
26.03.2024;04:45;12,80
26.03.2024;04:30;12,80
26.03.2024;04:15;12,80
26.03.2024;04:00;12,80
26.03.2024;03:45;12,80
26.03.2024;03:30;12,80
26.03.2024;03:15;12,80
26.03.2024;03:00;12,80
26.03.2024;02:45;12,80
26.03.2024;02:30;12,80
26.03.2024;02:15;12,80
26.03.2024;02:00;12,90
26.03.2024;01:45;12,90
26.03.2024;01:30;12,90
26.03.2024;01:15;12,90
26.03.2024;01:00;12,90
26.03.2024;00:45;12,90
26.03.2024;00:30;12,90
26.03.2024;00:15;12,90
26.03.2024;00:00;12,90
25.03.2024;23:45;12,90
25.03.2024;23:30;12,90
25.03.2024;23:15;12,90
25.03.2024;23:00;12,90
25.03.2024;22:45;12,90
25.03.2024;22:30;12,90
25.03.2024;22:15;12,90
25.03.2024;22:00;12,90
25.03.2024;21:45;12,90
25.03.2024;21:30;12,90
25.03.2024;21:15;13,00
25.03.2024;21:00;13,00
25.03.2024;20:45;13,00
25.03.2024;20:30;13,00
25.03.2024;20:15;13,00
25.03.2024;20:00;13,00
25.03.2024;19:45;13,10
25.03.2024;19:30;13,10
25.03.2024;19:15;13,30
25.03.2024;19:00;12,70
25.03.2024;18:45;12,70
25.03.2024;18:30;12,70
25.03.2024;18:15;12,70
25.03.2024;18:00;12,70
25.03.2024;17:45;12,70
25.03.2024;17:30;12,70
25.03.2024;17:15;12,70
25.03.2024;17:00;12,70
25.03.2024;16:45;12,70
25.03.2024;16:30;12,70
25.03.2024;16:15;12,70
25.03.2024;16:00;12,70
25.03.2024;15:45;12,70
25.03.2024;15:30;12,70
25.03.2024;15:15;12,70
25.03.2024;15:00;12,70
25.03.2024;14:45;12,70
25.03.2024;14:30;12,60
25.03.2024;14:15;12,60
25.03.2024;14:00;12,70
25.03.2024;13:45;12,70
25.03.2024;13:30;12,70
25.03.2024;13:15;12,70
25.03.2024;13:00;12,70
25.03.2024;12:45;12,70
25.03.2024;12:30;12,70
25.03.2024;12:15;12,70
25.03.2024;12:00;12,70
25.03.2024;11:45;12,70
25.03.2024;11:30;12,70
25.03.2024;11:15;12,70
25.03.2024;11:00;12,70
25.03.2024;10:45;12,70
25.03.2024;10:30;12,70
25.03.2024;10:15;12,70
25.03.2024;10:00;12,70
25.03.2024;09:45;12,70
25.03.2024;09:30;12,70
25.03.2024;09:15;12,70
25.03.2024;09:00;12,70
25.03.2024;08:45;12,70
25.03.2024;08:30;12,70
25.03.2024;08:15;12,70
25.03.2024;08:00;12,70
25.03.2024;07:45;12,70
25.03.2024;07:30;12,70
25.03.2024;07:15;12,80
25.03.2024;07:00;12,80
25.03.2024;06:45;12,80
25.03.2024;06:30;12,80
25.03.2024;06:15;12,80
25.03.2024;06:00;12,80
25.03.2024;05:45;12,80
25.03.2024;05:30;12,80
25.03.2024;05:15;12,80
25.03.2024;05:00;12,80
25.03.2024;04:45;12,80
25.03.2024;04:30;12,80
25.03.2024;04:15;12,80
25.03.2024;04:00;12,80
25.03.2024;03:45;12,80
25.03.2024;03:30;12,80
25.03.2024;03:15;12,80
25.03.2024;03:00;12,80
25.03.2024;02:45;12,80
25.03.2024;02:30;12,80
25.03.2024;02:15;12,80
25.03.2024;02:00;12,90
25.03.2024;01:45;12,90
25.03.2024;01:30;12,90
25.03.2024;01:15;12,90
25.03.2024;01:00;12,90
25.03.2024;00:45;12,90
25.03.2024;00:30;12,90
25.03.2024;00:15;12,90
25.03.2024;00:00;12,90
24.03.2024;23:45;12,90
24.03.2024;23:30;12,90
24.03.2024;23:15;12,90
24.03.2024;23:00;12,90
24.03.2024;22:45;12,90
24.03.2024;22:30;12,90
24.03.2024;22:15;12,90
24.03.2024;22:00;13,00
24.03.2024;21:45;13,00
24.03.2024;21:30;13,00
24.03.2024;21:15;13,00
24.03.2024;21:00;13,00
24.03.2024;20:45;13,00
24.03.2024;20:30;13,00
24.03.2024;20:15;13,10
24.03.2024;20:00;13,20
24.03.2024;19:45;14,20
24.03.2024;19:30;12,70
24.03.2024;19:15;12,70
24.03.2024;19:00;12,70
24.03.2024;18:45;12,70
24.03.2024;18:30;12,70
24.03.2024;18:15;12,70
24.03.2024;18:00;12,70
24.03.2024;17:45;12,70
24.03.2024;17:30;12,70
24.03.2024;17:15;12,70
24.03.2024;17:00;12,70
24.03.2024;16:45;12,70
24.03.2024;16:30;12,70
24.03.2024;16:15;12,70
24.03.2024;16:00;12,70
24.03.2024;15:45;12,70
24.03.2024;15:30;12,70
24.03.2024;15:15;12,70
24.03.2024;15:00;12,70
24.03.2024;14:45;12,70
24.03.2024;14:30;12,70
24.03.2024;14:15;12,60
24.03.2024;14:00;12,70
24.03.2024;13:45;12,70
24.03.2024;13:30;12,70
24.03.2024;13:15;12,70
24.03.2024;13:00;12,70
24.03.2024;12:45;12,70
24.03.2024;12:30;12,70
24.03.2024;12:15;12,70
24.03.2024;12:00;12,70
24.03.2024;11:45;12,70
24.03.2024;11:30;12,70
24.03.2024;11:15;12,70
24.03.2024;11:00;12,70
24.03.2024;10:45;12,70
24.03.2024;10:30;12,70
24.03.2024;10:15;12,70
24.03.2024;10:00;12,70
24.03.2024;09:45;12,70
24.03.2024;09:30;12,70
24.03.2024;09:15;12,70
24.03.2024;09:00;12,70
24.03.2024;08:45;12,70
24.03.2024;08:30;12,70
24.03.2024;08:15;12,70
24.03.2024;08:00;12,80
24.03.2024;07:45;12,80
24.03.2024;07:30;12,80
24.03.2024;07:15;12,80
24.03.2024;07:00;12,80
24.03.2024;06:45;12,80
24.03.2024;06:30;12,80
24.03.2024;06:15;12,80
24.03.2024;06:00;12,80
24.03.2024;05:45;12,80
24.03.2024;05:30;12,80
24.03.2024;05:15;12,80
24.03.2024;05:00;12,80
24.03.2024;04:45;12,80
24.03.2024;04:30;12,80
24.03.2024;04:15;12,80
24.03.2024;04:00;12,80
24.03.2024;03:45;12,80
24.03.2024;03:30;12,80
24.03.2024;03:15;12,90
24.03.2024;03:00;12,90
24.03.2024;02:45;12,90
24.03.2024;02:30;12,90
24.03.2024;02:15;12,90
24.03.2024;02:00;12,90
24.03.2024;01:45;12,90
24.03.2024;01:30;12,90
24.03.2024;01:15;12,90
24.03.2024;01:00;12,90
24.03.2024;00:45;12,90
24.03.2024;00:30;12,90
24.03.2024;00:15;12,90
24.03.2024;00:00;12,90
23.03.2024;23:45;12,90
23.03.2024;23:30;12,90
23.03.2024;23:15;12,90
23.03.2024;23:00;12,90
23.03.2024;22:45;13,00
23.03.2024;22:30;13,00
23.03.2024;22:15;13,00
23.03.2024;22:00;13,00
23.03.2024;21:45;13,00
23.03.2024;21:30;13,00
23.03.2024;21:15;13,00
23.03.2024;21:00;13,10
23.03.2024;20:45;13,20
23.03.2024;20:30;14,20
23.03.2024;20:15;12,60
23.03.2024;20:00;12,70
23.03.2024;19:45;12,70
23.03.2024;19:30;12,70
23.03.2024;19:15;12,70
23.03.2024;19:00;12,70
23.03.2024;18:45;12,70
23.03.2024;18:30;12,70
23.03.2024;18:15;12,70
23.03.2024;18:00;12,70
23.03.2024;17:45;12,70
23.03.2024;17:30;12,70
23.03.2024;17:15;12,70
23.03.2024;17:00;12,70
23.03.2024;16:45;12,70
23.03.2024;16:30;12,70
23.03.2024;16:15;12,70
23.03.2024;16:00;12,70
23.03.2024;15:45;12,70
23.03.2024;15:30;12,70
23.03.2024;15:15;12,70
23.03.2024;15:00;12,70
23.03.2024;14:45;12,70
23.03.2024;14:30;12,70
23.03.2024;14:15;12,60
23.03.2024;14:00;12,70
23.03.2024;13:45;12,70
23.03.2024;13:30;12,70
23.03.2024;13:15;12,70
23.03.2024;13:00;12,70
23.03.2024;12:45;12,70
23.03.2024;12:30;12,70
23.03.2024;12:15;12,70
23.03.2024;12:00;12,70
23.03.2024;11:45;12,70
23.03.2024;11:30;12,70
23.03.2024;11:15;12,70
23.03.2024;11:00;12,70
23.03.2024;10:45;12,70
23.03.2024;10:30;12,70
23.03.2024;10:15;12,70
23.03.2024;10:00;12,70
23.03.2024;09:45;12,70
23.03.2024;09:30;12,70
23.03.2024;09:15;12,70
23.03.2024;09:00;12,70
23.03.2024;08:45;12,70
23.03.2024;08:30;12,70
23.03.2024;08:15;12,70
23.03.2024;08:00;12,80
23.03.2024;07:45;12,80
23.03.2024;07:30;12,80
23.03.2024;07:15;12,80
23.03.2024;07:00;12,80
23.03.2024;06:45;12,80
23.03.2024;06:30;12,80
23.03.2024;06:15;12,80
23.03.2024;06:00;12,80
23.03.2024;05:45;12,80
23.03.2024;05:30;12,80
23.03.2024;05:15;12,80
23.03.2024;05:00;12,80
23.03.2024;04:45;12,80
23.03.2024;04:30;12,80
23.03.2024;04:15;12,80
23.03.2024;04:00;12,90
23.03.2024;03:45;12,90
23.03.2024;03:30;12,90
23.03.2024;03:15;12,90
23.03.2024;03:00;12,90
23.03.2024;02:45;12,90
23.03.2024;02:30;12,90
23.03.2024;02:15;12,90
23.03.2024;02:00;12,90
23.03.2024;01:45;12,90
23.03.2024;01:30;12,90
23.03.2024;01:15;12,90
23.03.2024;01:00;12,90
23.03.2024;00:45;12,90
23.03.2024;00:30;12,90
23.03.2024;00:15;12,90
23.03.2024;00:00;12,90
22.03.2024;23:45;12,90
22.03.2024;23:30;12,90
22.03.2024;23:15;13,00
22.03.2024;23:00;13,00
22.03.2024;22:45;13,00
22.03.2024;22:30;13,00
22.03.2024;22:15;13,00
22.03.2024;22:00;13,00
22.03.2024;21:45;13,10
22.03.2024;21:30;13,10
22.03.2024;21:15;13,40
22.03.2024;21:00;12,70
22.03.2024;20:45;12,70
22.03.2024;20:30;12,60
22.03.2024;20:15;12,60
22.03.2024;20:00;12,70
22.03.2024;19:45;12,70
22.03.2024;19:30;12,70
22.03.2024;19:15;12,70
22.03.2024;19:00;12,70
22.03.2024;18:45;12,70
22.03.2024;18:30;12,70
22.03.2024;18:15;12,70
22.03.2024;18:00;12,70
22.03.2024;17:45;12,70
22.03.2024;17:30;12,70
22.03.2024;17:15;12,70
22.03.2024;17:00;12,70
22.03.2024;16:45;12,70
22.03.2024;16:30;12,70
22.03.2024;16:15;12,70
22.03.2024;16:00;12,70
22.03.2024;15:45;12,70
22.03.2024;15:30;12,70
22.03.2024;15:15;12,70
22.03.2024;15:00;12,70
22.03.2024;14:45;12,70
22.03.2024;14:30;12,70
22.03.2024;14:15;12,70
22.03.2024;14:00;12,70
22.03.2024;13:45;12,70
22.03.2024;13:30;12,70
22.03.2024;13:15;12,70
22.03.2024;13:00;12,70
22.03.2024;12:45;12,70
22.03.2024;12:30;12,70
22.03.2024;12:15;12,70
22.03.2024;12:00;12,70
22.03.2024;11:45;12,70
22.03.2024;11:30;12,70
22.03.2024;11:15;12,70
22.03.2024;11:00;12,70
22.03.2024;10:45;12,70
22.03.2024;10:30;12,70
22.03.2024;10:15;12,70
22.03.2024;10:00;12,70
22.03.2024;09:45;12,70
22.03.2024;09:30;12,70
22.03.2024;09:15;12,70
22.03.2024;09:00;12,70
22.03.2024;08:45;12,70
22.03.2024;08:30;12,70
22.03.2024;08:15;12,70
22.03.2024;08:12;12,70
22.03.2024;08:00;12,80
22.03.2024;07:45;12,80
22.03.2024;07:30;12,80
22.03.2024;07:15;12,80
22.03.2024;07:00;12,80
22.03.2024;06:45;12,80
22.03.2024;06:30;12,80
22.03.2024;06:15;12,80
22.03.2024;06:00;12,80
22.03.2024;05:45;12,80
22.03.2024;05:30;12,80
22.03.2024;05:15;12,80
22.03.2024;05:00;12,80
22.03.2024;04:45;12,90
22.03.2024;04:30;12,90
22.03.2024;04:15;12,90
22.03.2024;04:00;12,90
22.03.2024;03:45;12,90
22.03.2024;03:30;12,90
22.03.2024;03:15;12,90
22.03.2024;03:00;12,80
22.03.2024;02:45;12,90
22.03.2024;02:30;12,90
22.03.2024;02:15;12,90
22.03.2024;02:00;12,90
22.03.2024;01:45;12,90
22.03.2024;01:30;12,90
22.03.2024;01:15;12,90
22.03.2024;01:00;12,90
22.03.2024;00:45;12,90
22.03.2024;00:30;12,90
22.03.2024;00:15;12,90
22.03.2024;00:00;13,00
21.03.2024;23:45;13,00
21.03.2024;23:30;13,00
21.03.2024;23:15;13,00
21.03.2024;23:00;13,00
21.03.2024;22:45;13,00
21.03.2024;22:30;13,00
21.03.2024;22:15;13,10
21.03.2024;22:00;13,20
21.03.2024;21:45;14,20
21.03.2024;21:30;12,70
21.03.2024;21:15;12,60
21.03.2024;21:00;12,60
21.03.2024;20:45;12,70
21.03.2024;20:30;12,70
21.03.2024;20:15;12,70
21.03.2024;20:00;12,70
21.03.2024;19:45;12,70
21.03.2024;19:30;12,70
21.03.2024;19:15;12,70
21.03.2024;19:00;12,70
21.03.2024;18:45;12,70
21.03.2024;18:30;12,70
21.03.2024;18:15;12,70
21.03.2024;18:00;12,70
21.03.2024;17:45;12,70
21.03.2024;17:30;12,70
21.03.2024;17:15;12,70
21.03.2024;17:00;12,70
21.03.2024;16:45;12,70
21.03.2024;16:30;12,70
21.03.2024;16:15;12,70
21.03.2024;16:00;12,70
21.03.2024;15:45;12,70
21.03.2024;15:30;12,70
21.03.2024;15:15;12,70
21.03.2024;15:00;12,60
21.03.2024;14:45;12,70
21.03.2024;14:30;12,70
21.03.2024;14:15;12,70
21.03.2024;14:00;12,70
21.03.2024;13:45;12,70
21.03.2024;13:30;12,70
21.03.2024;13:15;12,70
21.03.2024;13:00;12,70
21.03.2024;12:45;12,70
21.03.2024;12:30;12,70
21.03.2024;12:15;12,70
21.03.2024;12:00;12,70
21.03.2024;11:45;12,70
21.03.2024;11:30;12,70
21.03.2024;11:15;12,70
21.03.2024;11:00;12,70
21.03.2024;10:45;12,70
21.03.2024;10:30;12,70
21.03.2024;10:15;12,70
21.03.2024;10:00;12,80
21.03.2024;09:45;12,80
21.03.2024;09:30;12,80
21.03.2024;09:15;12,80
21.03.2024;09:00;12,70
21.03.2024;08:45;12,80
21.03.2024;08:30;12,80
21.03.2024;08:15;12,80
21.03.2024;08:00;12,80
21.03.2024;07:45;12,80
21.03.2024;07:30;12,80
21.03.2024;07:15;12,80
21.03.2024;07:00;12,80
21.03.2024;06:45;12,80
21.03.2024;06:30;12,80
21.03.2024;06:15;12,80
21.03.2024;06:00;12,80
21.03.2024;05:45;12,80
21.03.2024;05:30;12,90
21.03.2024;05:15;12,90
21.03.2024;05:00;12,90
21.03.2024;04:45;12,90
21.03.2024;04:30;12,90
21.03.2024;04:15;12,90
21.03.2024;04:00;12,90
21.03.2024;03:45;12,90
21.03.2024;03:30;12,90
21.03.2024;03:15;12,90
21.03.2024;03:00;12,90
21.03.2024;02:45;12,90
21.03.2024;02:30;12,90
21.03.2024;02:15;12,90
21.03.2024;02:00;12,90
21.03.2024;01:45;12,90
21.03.2024;01:30;12,90
21.03.2024;01:15;12,90
21.03.2024;01:00;12,90
21.03.2024;00:45;13,00
21.03.2024;00:30;13,00
21.03.2024;00:15;13,00
21.03.2024;00:00;13,00
20.03.2024;23:45;13,00
20.03.2024;23:30;13,00
20.03.2024;23:15;13,00
20.03.2024;23:00;13,10
20.03.2024;22:45;13,10
20.03.2024;22:30;13,70
20.03.2024;22:15;12,70
20.03.2024;22:00;12,70
20.03.2024;21:45;12,70
20.03.2024;21:30;12,70
20.03.2024;21:15;12,60
20.03.2024;21:00;12,60
20.03.2024;20:45;12,70
20.03.2024;20:30;12,70
20.03.2024;20:15;12,70
20.03.2024;20:00;12,70
20.03.2024;19:45;12,70
20.03.2024;19:30;12,70
20.03.2024;19:15;12,70
20.03.2024;19:00;12,70
20.03.2024;18:45;12,70
20.03.2024;18:30;12,70
20.03.2024;18:15;12,70
20.03.2024;18:00;12,70
20.03.2024;17:45;12,70
20.03.2024;17:30;12,70
20.03.2024;17:15;12,70
20.03.2024;17:00;12,70
20.03.2024;16:45;12,70
20.03.2024;16:30;12,70
20.03.2024;16:15;12,70
20.03.2024;16:00;12,70
20.03.2024;15:45;12,70
20.03.2024;15:30;12,70
20.03.2024;15:15;12,70
20.03.2024;15:00;12,60
20.03.2024;14:45;12,70
20.03.2024;14:30;12,70
20.03.2024;14:15;12,70
20.03.2024;14:00;12,70
20.03.2024;13:45;12,70
20.03.2024;13:30;12,70
20.03.2024;13:15;12,70
20.03.2024;13:00;12,70
20.03.2024;12:45;12,70
20.03.2024;12:30;12,70
20.03.2024;12:15;12,70
20.03.2024;12:00;12,70
20.03.2024;11:45;12,70
20.03.2024;11:30;12,70
20.03.2024;11:15;12,70
20.03.2024;11:00;12,80
20.03.2024;10:45;12,80
20.03.2024;10:30;12,80
20.03.2024;10:15;12,80
20.03.2024;10:00;12,80
20.03.2024;09:45;12,80
20.03.2024;09:30;12,80
20.03.2024;09:15;12,80
20.03.2024;09:00;12,70
20.03.2024;08:45;12,80
20.03.2024;08:30;12,80
20.03.2024;08:15;12,80
20.03.2024;08:00;12,80
20.03.2024;07:45;12,80
20.03.2024;07:30;12,80
20.03.2024;07:15;12,80
20.03.2024;07:00;12,80
20.03.2024;06:45;12,80
20.03.2024;06:30;12,80
20.03.2024;06:15;12,80
20.03.2024;06:00;12,90
20.03.2024;05:45;12,90
20.03.2024;05:30;12,90
20.03.2024;05:15;12,90
20.03.2024;05:00;12,90
20.03.2024;04:45;12,90
20.03.2024;04:30;12,90
20.03.2024;04:15;12,90
20.03.2024;04:00;12,90
20.03.2024;03:45;12,90
20.03.2024;03:30;12,90
20.03.2024;03:15;12,90
20.03.2024;03:00;12,90
20.03.2024;02:45;12,90
20.03.2024;02:30;12,90
20.03.2024;02:15;12,90
20.03.2024;02:00;12,90
20.03.2024;01:45;12,90
20.03.2024;01:30;13,00
20.03.2024;01:15;13,00
20.03.2024;01:00;13,00
20.03.2024;00:45;13,00
20.03.2024;00:30;13,00
20.03.2024;00:15;13,00
20.03.2024;00:00;13,00
19.03.2024;23:45;13,10
19.03.2024;23:30;13,20
19.03.2024;23:15;14,20
19.03.2024;23:00;12,70
19.03.2024;22:45;12,70
19.03.2024;22:30;12,70
19.03.2024;22:15;12,70
19.03.2024;22:00;12,70
19.03.2024;21:45;12,70
19.03.2024;21:30;12,70
19.03.2024;21:15;12,70
19.03.2024;21:00;12,60
19.03.2024;20:45;12,70
19.03.2024;20:30;12,70
19.03.2024;20:15;12,70
19.03.2024;20:00;12,70
19.03.2024;19:45;12,70
19.03.2024;19:30;12,70
19.03.2024;19:15;12,70
19.03.2024;19:00;12,70
19.03.2024;18:45;12,70
19.03.2024;18:30;12,70
19.03.2024;18:15;12,70
19.03.2024;18:00;12,70
19.03.2024;17:45;12,70
19.03.2024;17:30;12,70
19.03.2024;17:15;12,70
19.03.2024;17:00;12,70
19.03.2024;16:45;12,70
19.03.2024;16:30;12,70
19.03.2024;16:15;12,70
19.03.2024;16:00;12,70
19.03.2024;15:45;12,70
19.03.2024;15:30;12,70
19.03.2024;15:15;12,70
19.03.2024;15:00;12,70
19.03.2024;14:45;12,70
19.03.2024;14:30;12,70
19.03.2024;14:15;12,70
19.03.2024;14:00;12,70
19.03.2024;13:45;12,70
19.03.2024;13:30;12,70
19.03.2024;13:15;12,70
19.03.2024;13:00;12,70
19.03.2024;12:45;12,70
19.03.2024;12:30;12,80
19.03.2024;12:15;12,80
19.03.2024;12:00;12,80
19.03.2024;11:45;12,80
19.03.2024;11:30;12,80
19.03.2024;11:15;12,80
19.03.2024;11:00;12,80
19.03.2024;10:45;12,80
19.03.2024;10:30;12,80
19.03.2024;10:15;12,80
19.03.2024;10:00;12,80
19.03.2024;09:45;12,80
19.03.2024;09:30;12,80
19.03.2024;09:15;12,80
19.03.2024;09:00;12,80
19.03.2024;08:45;12,80
19.03.2024;08:30;12,80
19.03.2024;08:15;12,80
19.03.2024;08:00;12,90
19.03.2024;07:45;12,90
19.03.2024;07:30;12,90
19.03.2024;07:15;12,90
19.03.2024;07:00;12,90
19.03.2024;06:45;12,90
19.03.2024;06:30;12,90
19.03.2024;06:15;12,90
19.03.2024;06:00;12,90
19.03.2024;05:45;12,90
19.03.2024;05:30;12,90
19.03.2024;05:15;12,90
19.03.2024;05:00;12,90
19.03.2024;04:45;12,90
19.03.2024;04:30;12,90
19.03.2024;04:15;12,90
19.03.2024;04:00;12,90
19.03.2024;03:45;12,90
19.03.2024;03:30;12,90
19.03.2024;03:15;12,90
19.03.2024;03:00;12,90
19.03.2024;02:45;13,00
19.03.2024;02:30;13,00
19.03.2024;02:15;13,00
19.03.2024;02:00;13,00
19.03.2024;01:45;13,00
19.03.2024;01:30;13,00
19.03.2024;01:15;13,10
19.03.2024;01:00;13,20
19.03.2024;00:45;14,20
19.03.2024;00:30;12,70
19.03.2024;00:15;12,70
19.03.2024;00:00;12,70
18.03.2024;23:45;12,70
18.03.2024;23:30;12,70
18.03.2024;23:15;12,70
18.03.2024;23:00;12,70
18.03.2024;22:45;12,70
18.03.2024;22:30;12,70
18.03.2024;22:15;12,70
18.03.2024;22:00;12,70
18.03.2024;21:45;12,70
18.03.2024;21:30;12,70
18.03.2024;21:15;12,70
18.03.2024;21:00;12,60
18.03.2024;20:45;12,70
18.03.2024;20:30;12,70
18.03.2024;20:15;12,70
18.03.2024;20:00;12,70
18.03.2024;19:45;12,70
18.03.2024;19:30;12,70
18.03.2024;19:15;12,70
18.03.2024;19:00;12,70
18.03.2024;18:45;12,70
18.03.2024;18:30;12,70
18.03.2024;18:15;12,70
18.03.2024;18:00;12,70
18.03.2024;17:45;12,70
18.03.2024;17:30;12,70
18.03.2024;17:15;12,70
18.03.2024;17:00;12,70
18.03.2024;16:45;12,70
18.03.2024;16:30;12,70
18.03.2024;16:15;12,70
18.03.2024;16:00;12,70
18.03.2024;15:45;12,70